Location: Lecco
(45.8566°N, 9.3977°E)
Time: 23:19:26
(UTC+02:00)

Explorer 11/Cluster Stage 4 - All Passes

Search period start: 16 July 2019 00:00
Search period end: 26 July 2019 00:00
Orbit: 467 x 1260 km, 28.8° (Epoch: 15 July)

Date Brightness Start Highest point End Pass type
(mag) Time Alt. Az. Time Alt. Az. Time Alt. Az.
16 Jul - 03:41:16 10° S 03:43:18 11° SSE 03:45:22 10° SE visible
16 Jul - 05:25:35 10° SSW 05:31:09 20° S 05:36:41 10° SE daylight
16 Jul - 07:13:21 10° SW 07:19:15 22° S 07:24:52 10° SE daylight
16 Jul - 09:03:12 10° SW 09:07:07 14° SSW 09:10:49 10° S daylight
17 Jul - 03:29:28 10° S 03:32:19 12° SSE 03:35:16 10° SE visible
17 Jul - 05:14:31 10° SW 05:20:11 21° S 05:25:55 10° SE visible
17 Jul - 07:02:26 10° SW 07:08:18 22° S 07:13:59 10° SE daylight
17 Jul - 08:52:33 10° SW 08:56:10 14° SSW 08:59:39 10° S daylight
18 Jul - 03:18:01 10° S 03:21:22 13° SSE 03:24:50 10° SE visible
18 Jul - 05:03:33 10° SW 05:09:14 22° S 05:15:05 10° SE visible
18 Jul - 06:51:34 10° SW 06:57:21 21° S 07:03:02 10° SE daylight
18 Jul - 08:42:02 10° SW 08:45:12 13° SSW 08:48:18 10° S daylight
19 Jul - 03:06:46 10° S 03:10:25 14° SSE 03:14:14 10° SE visible
19 Jul - 04:52:37 10° SW 04:58:17 22° S 05:04:11 10° SE visible
19 Jul - 06:40:45 10° SW 06:46:23 21° S 06:52:00 10° SSE daylight
19 Jul - 08:31:45 10° SW 08:34:15 12° SSW 08:36:41 10° S daylight
20 Jul - 02:55:40 10° SSW 02:59:29 15° SSE 03:03:31 10° SE visible
20 Jul - 04:41:46 10° SW 04:47:21 22° S 04:53:14 10° SE visible
20 Jul - 06:30:01 10° SW 06:35:26 20° SSW 06:40:55 10° SSE daylight
20 Jul - 08:22:07 10° SW 08:23:16 10° SSW 08:24:25 10° SSW daylight
21 Jul - 02:44:41 10° SSW 02:48:33 15° SSE 02:52:43 10° SE visible
21 Jul - 04:30:59 10° SW 04:36:25 22° S 04:42:13 10° SE visible
21 Jul - 06:19:21 10° SW 06:24:29 19° SSW 06:29:43 10° SSE daylight
22 Jul - 02:33:47 10° SSW 02:37:39 16° SSE 02:41:51 10° SE visible
22 Jul - 04:20:16 10° SW 04:25:30 21° S 04:31:10 10° SE visible
22 Jul - 06:08:46 10° SW 06:13:33 17° SSW 06:18:27 10° SSE daylight
23 Jul - 02:22:59 10° SSW 02:26:46 16° SSE 02:30:55 10° SE visible
23 Jul - 04:09:36 10° SW 04:14:36 20° S 04:20:03 10° SE visible
23 Jul - 05:58:19 10° SW 06:02:36 16° SSW 06:07:03 10° SSE daylight
24 Jul - 02:12:14 10° SSW 02:15:55 16° SSE 02:19:58 10° SE visible
24 Jul - 03:59:00 10° SW 04:03:43 19° S 04:08:52 10° SE visible
24 Jul - 05:48:00 10° SW 05:51:40 14° SSW 05:55:30 10° SSE daylight
25 Jul - 02:01:34 10° SSW 02:05:04 16° SSE 02:08:57 10° SE visible
25 Jul - 03:48:29 10° SW 03:52:51 18° S 03:57:39 10° SE visible
25 Jul - 05:37:56 10° SW 05:40:46 12° SSW 05:43:40 10° S daylight
